Butler, GA

10:18 AM EDT on September 21, 2019 (GMT -0400)
Butler

Weather History for K6A1 - August, 2019

Change the Weather History Date:

Thursday, August 22, 2019

  Actual Average (KMCN) Record (KMCN)
Temperature  
Mean Temperature 82 °F -  
Max Temperature 93 °F 91 °F 103 °F (1968)
Min Temperature 71 °F 69 °F 58 °F (1930)
Cooling Degree Days 17    
Growing Degree Days 32 (Base 50)    
Moisture  
Dew Point 68 °F    
Average Humidity 65    
Maximum Humidity 96    
Minimum Humidity 37    
Precipitation  
Precipitation 0.00 in - - ()
Sea Level Pressure  
Sea Level Pressure 30.07 in    
Wind  
Wind Speed 4 mph ()    
Max Wind Speed 10 mph    
Max Gust Speed -    
Visibility 10.0 miles    
Events Thunderstorm    
Averages and records for this station are not official NWS values.
T = Trace of Precipitation, MM = Missing Value Source: Averaged Metar Reports

Daily Weather History Graph

Daily Weather History Graph

Search for Another Location

Airport or City:

Astronomy

Aug. 22, 2019 Rise Set
Actual Time 7:05 AM EDT 8:14 PM EDT
Civil Twilight 6:39 AM EDT 8:39 PM EDT
Nautical Twilight 6:09 AM EDT 9:09 PM EDT
Astronomical Twilight 5:37 AM EDT 9:41 PM EDT
Moon No Moon Rise 1:18 PM EDT (8/22)
Length of Visible Light 13h 59m
Length of Day
13h 08m
Waning Gibbous, 60% of the Moon is Illuminated
Aug 22
Waning Gibbous
Aug 23
Last Quarter
Aug 30
New
Sep 5
First Quarter
Sep 14
Full

Hourly Weather History & Observations

Time (EDT) Temp. Heat Index Dew Point Humidity Pressure Visibility Wind Dir Wind Speed Gust Speed Precip Events Conditions
12:15 AM 76.5 °F - 71.2 °F 84% 30.10 in 10.0 mi SW 5.8 mph - N/A   Unknown
12:35 AM 76.1 °F - 71.4 °F 85% 30.10 in 10.0 mi SW 6.9 mph - N/A   Unknown
12:55 AM 75.4 °F - 71.4 °F 87% 30.10 in 10.0 mi SW 5.8 mph - N/A   Unknown
1:15 AM 75.4 °F - 71.2 °F 87% 30.11 in 10.0 mi SSW 4.6 mph - N/A   Unknown
1:35 AM 75.2 °F - 71.6 °F 89% 30.10 in 10.0 mi SW 3.5 mph - N/A   Unknown
1:55 AM 75.2 °F - 71.6 °F 89% 30.10 in 10.0 mi SSW 3.5 mph - N/A   Unknown
2:15 AM 74.5 °F - 71.6 °F 91% 30.09 in 10.0 mi Calm Calm - N/A   Unknown
2:35 AM 73.8 °F - 71.6 °F 93% 30.08 in 10.0 mi West 3.5 mph - N/A   Unknown
2:55 AM 73.9 °F - 71.4 °F 92% 30.07 in 10.0 mi WSW 3.5 mph - N/A   Unknown
3:15 AM 74.3 °F - 70.9 °F 89% 30.07 in 10.0 mi WSW 3.5 mph - N/A   Unknown
3:35 AM 73.9 °F - 70.7 °F 90% 30.07 in 10.0 mi SW 3.5 mph - N/A   Unknown
3:55 AM 73.8 °F - 70.7 °F 90% 30.06 in 10.0 mi SSW 3.5 mph - N/A   Unknown
4:15 AM 72.7 °F - 70.5 °F 93% 30.06 in 10.0 mi SW 3.5 mph - N/A   Unknown
4:35 AM 72.9 °F - 70.3 °F 92% 30.07 in 10.0 mi SW 5.8 mph - N/A   Unknown
4:55 AM 72.9 °F - 70.3 °F 92% 30.07 in 10.0 mi Calm Calm - N/A   Unknown
5:15 AM 72.1 °F - 70.7 °F 95% 30.07 in 10.0 mi Calm Calm - N/A   Unknown
5:55 AM 72.0 °F - 70.7 °F 96% 30.08 in 10.0 mi Calm Calm - N/A   Unknown
6:15 AM 72.0 °F - 70.7 °F 96% 30.08 in 10.0 mi WSW 3.5 mph - N/A   Unknown
6:35 AM 72.0 °F - 70.7 °F 96% 30.09 in 10.0 mi SW 3.5 mph - N/A   Unknown
6:55 AM 72.1 °F - 70.7 °F 95% 30.10 in 10.0 mi Calm Calm - N/A   Unknown
7:15 AM 71.6 °F - 70.5 °F 96% 30.11 in 10.0 mi Calm Calm - N/A   Unknown
7:35 AM 72.7 °F - 71.6 °F 96% 30.11 in 10.0 mi Calm Calm - N/A   Unknown
7:55 AM 72.9 °F - 71.1 °F 94% 30.11 in 10.0 mi Calm Calm - N/A   Unknown
8:15 AM 73.4 °F - 71.2 °F 93% 30.12 in 10.0 mi Calm Calm - N/A   Unknown
8:35 AM 75.4 °F - 71.1 °F 86% 30.12 in 10.0 mi West 3.5 mph - N/A   Unknown
8:55 AM 76.3 °F - 70.0 °F 81% 30.12 in 10.0 mi West 3.5 mph - N/A   Unknown
9:15 AM 78.4 °F - 70.0 °F 75% 30.13 in 10.0 mi West 3.5 mph - N/A   Unknown
9:35 AM 80.8 °F 83.8 °F 69.1 °F 67% 30.13 in 10.0 mi WNW 5.8 mph - N/A   Unknown
9:55 AM 82.2 °F 85.5 °F 69.1 °F 64% 30.13 in 10.0 mi West 5.8 mph - N/A   Unknown
10:15 AM 81.5 °F 84.8 °F 69.1 °F 66% 30.13 in 10.0 mi West 5.8 mph - N/A   Unknown
10:35 AM 83.1 °F 86.6 °F 69.1 °F 62% 30.12 in 10.0 mi Calm Calm - N/A   Unknown
10:55 AM 84.7 °F 88.2 °F 68.4 °F 58% 30.12 in 10.0 mi West 5.8 mph - N/A   Unknown
11:15 AM 85.5 °F 88.5 °F 67.8 °F 55% 30.12 in 10.0 mi NNW 3.5 mph - N/A   Unknown
11:35 AM 87.4 °F 90.8 °F 68.0 °F 52% 30.11 in 10.0 mi WSW 3.5 mph - N/A   Unknown
11:55 AM 87.8 °F 90.4 °F 66.6 °F 49% 30.11 in 10.0 mi WSW 10.4 mph - N/A   Unknown
12:15 PM 90.1 °F 92.3 °F 65.8 °F 44% 30.11 in 10.0 mi SSW 8.1 mph - N/A   Unknown
12:35 PM 89.4 °F 91.2 °F 64.8 °F 44% 30.10 in 10.0 mi WSW 8.1 mph - N/A   Unknown
12:55 PM 90.9 °F 92.3 °F 64.4 °F 41% 30.10 in 10.0 mi South 8.1 mph - N/A   Unknown
1:15 PM 90.0 °F 90.3 °F 61.9 °F 39% 30.09 in 10.0 mi WSW 8.1 mph - N/A   Unknown
1:35 PM 89.8 °F 92.1 °F 66.0 °F 45% 30.09 in 10.0 mi SSW 9.2 mph - N/A   Unknown
1:55 PM 90.9 °F 94.0 °F 66.9 °F 45% 30.08 in 10.0 mi SSW 5.8 mph - N/A   Unknown
2:15 PM 90.5 °F 92.9 °F 66.0 °F 44% 30.07 in 10.0 mi South 10.4 mph - N/A   Unknown
2:35 PM 92.8 °F 94.3 °F 64.0 °F 38% 30.07 in 10.0 mi SSW 10.4 mph - N/A   Unknown
2:55 PM 91.9 °F 93.7 °F 64.6 °F 40% 30.06 in 10.0 mi SSW 6.9 mph - N/A   Unknown
3:15 PM 90.7 °F 93.2 °F 66.0 °F 44% 30.05 in 10.0 mi South 4.6 mph - N/A   Unknown
3:35 PM 91.0 °F 93.8 °F 66.6 °F 44% 30.04 in 10.0 mi South 6.9 mph - N/A   Unknown
3:55 PM 93.0 °F 95.0 °F 64.4 °F 39% 30.04 in 10.0 mi SW 10.4 mph - N/A   Unknown
4:15 PM 92.7 °F 95.3 °F 65.7 °F 41% 30.02 in 10.0 mi SSW 6.9 mph - N/A   Unknown
4:35 PM 92.7 °F 94.0 °F 63.7 °F 38% 30.02 in 10.0 mi SSW 6.9 mph - N/A   Unknown
4:55 PM 91.8 °F 93.0 °F 63.5 °F 39% 30.01 in 10.0 mi SW 8.1 mph - N/A   Unknown
5:15 PM 93.2 °F 94.5 °F 63.1 °F 37% 30.00 in 10.0 mi SW 6.9 mph - N/A   Unknown
5:35 PM 91.4 °F 92.1 °F 62.8 °F 38% 30.00 in 10.0 mi South 8.1 mph - N/A   Unknown
5:55 PM 92.8 °F 94.3 °F 63.9 °F 38% 30.01 in 10.0 mi SSW 3.5 mph - N/A   Unknown
6:15 PM 92.3 °F 93.4 °F 63.3 °F 38% 30.00 in 10.0 mi WSW 5.8 mph - N/A   Unknown
6:35 PM 91.9 °F 92.9 °F 62.8 °F 38% 30.00 in 10.0 mi South 4.6 mph - N/A   Unknown
6:55 PM 91.6 °F 92.7 °F 63.7 °F 39% 30.01 in 10.0 mi SW 6.9 mph - N/A   Unknown
7:15 PM 90.9 °F 92.0 °F 63.5 °F 40% 30.00 in 10.0 mi SSW 6.9 mph - N/A   Unknown
7:35 PM 90.0 °F 91.0 °F 63.5 °F 41% 30.00 in 10.0 mi SSW 5.8 mph - N/A   Unknown
7:55 PM 88.7 °F 90.1 °F 64.2 °F 44% 30.00 in 10.0 mi Calm Calm - N/A   Unknown
8:15 PM 86.9 °F 88.3 °F 64.4 °F 47% 30.00 in 10.0 mi SSW 3.5 mph - N/A   Unknown
8:35 PM 85.6 °F 87.1 °F 64.8 °F 49% 30.01 in 10.0 mi SSW 3.5 mph - N/A   Unknown
8:55 PM 83.5 °F 85.3 °F 65.5 °F 54% 30.02 in 10.0 mi SSW 3.5 mph - N/A   Unknown
9:15 PM 84.0 °F 86.0 °F 65.5 °F 54% 30.02 in 10.0 mi SSW 3.5 mph - N/A   Unknown
9:35 PM 82.6 °F 84.9 °F 66.2 °F 58% 30.04 in 10.0 mi SSW 4.6 mph - N/A   Unknown
9:55 PM 82.9 °F 85.2 °F 66.4 °F 57% 30.05 in 10.0 mi South 4.6 mph - N/A Thunderstorm Unknown
10:15 PM 83.5 °F 86.4 °F 67.8 °F 59% 30.05 in 10.0 mi SSW 4.6 mph - N/A   Unknown
10:55 PM 82.8 °F 86.4 °F 69.3 °F 64% 30.06 in 10.0 mi SSW 6.9 mph - N/A   Unknown
11:15 PM 81.3 °F 84.8 °F 69.8 °F 68% 30.06 in 10.0 mi SSW 4.6 mph - N/A   Unknown
11:35 PM 80.1 °F 83.2 °F 69.8 °F 71% 30.06 in 10.0 mi South 5.8 mph - N/A   Unknown
11:55 PM 79.2 °F - 69.4 °F 72% 30.06 in 10.0 mi SSW 3.5 mph - N/A   Unknown